Content
SEND FEEDBACK

Daily
Averages
Monthly
Summary
Tunisia

SOUSSE, TUNISIA


Home > Africa > Tunisia
Elevation: 7 feet     Latitude: 35 46N     Longitude: 010 45E

WEATHER
 
SELECT A DAY
Number of Records: 211,305;   Date Range: 2/20/97 - 10/23/14
 
SHARE

PRINT THIS DATA

[ ← Previous Day ]
WEATHER ALMANAC - JANUARY 23, 2013
[ Next Day → ]
[ °C ]   °F
Weather ElementAverageHighLow
Temperature53.6 °F66.2 °F (1:30 pm)41 °F (7:30 am)
Dewpoint36.8 °F42.8 °F (7:00 pm)32 °F (6:00 pm)
Humidity56.1 %81 % (5:00 am)30 % (4:00 pm)
Barometer29.09 in29.92 in (1:00 am) (7:00 pm)
Wind Speed14.6 mph29.9 mph (6:30 pm)
Wind Gust43.7 mph (6:30 pm)
Weather ElementAverage
Visibility5.9 mi
Wind DirectionSSW (214.6 °)

Weather ElementTotal
Precipitation---
Heating Degree Days11.4 (Base 65)
Growing Degree Days3.6 (Base 50)
Averaged from 41 records on January 23, 2013
WEATHER CONDITIONS BREAKOUT
WIND DIRECTION BREAKOUT
WEATHER BY HOUR - JANUARY 23, 2013
[ °C ]   °F
Local TimeTemperatureDewpointHumidityBarometerVisibilityWind DirectionWind SpeedGust SpeedPrecipitationEventsConditions
12:30 AM50.0 °F39.2 °F66 %29.89 in6.2 miSouth (190°)6.9 mphScattered Clouds
1:00 AM50.0 °F39.2 °F66 %29.92 in6.2 miSSW (200°)5.8 mphScattered Clouds
2:00 AM48.2 °F37.4 °F66 %29.89 in6.2 miSouth (180°)5.8 mphScattered Clouds
2:30 AM46.4 °F37.4 °F71 %29.89 in6.2 miSouth (190°)5.8 mphScattered Clouds
3:00 AM46.4 °F37.4 °F71 %29.89 in6.2 miSSW (210°)4.6 mphScattered Clouds
4:00 AM44.6 °F37.4 °F76 %29.89 in6.2 miSW (230°)5.8 mphScattered Clouds
4:30 AM46.4 °F39.2 °F76 %29.89 in6.2 miSW (220°)5.8 mphScattered Clouds
5:00 AM44.6 °F39.2 °F81 %29.89 in6.2 miSouth (190°)3.5 mphScattered Clouds
5:30 AM44.6 °F37.4 °F76 %29.86 in6.2 miSW (220°)11.5 mphScattered Clouds
6:00 AM46.4 °F37.4 °F71 %29.89 in6.2 miSW (230°)12.7 mphScattered Clouds
6:30 AM44.6 °F37.4 °F76 %29.86 in6.2 miSW (220°)8.1 mphScattered Clouds
7:00 AM42.8 °F37.4 °F81 %29.89 in6.2 miSE (130°)5.8 mphScattered Clouds
7:30 AM41.0 °F35.6 °F81 %29.89 in6.2 miSouth (170°)5.8 mphPartly Cloudy
8:00 AM42.8 °F35.6 °F76 %29.86 in6.2 miSouth (180°)6.9 mphPartly Cloudy
8:30 AM44.6 °F37.4 °F76 %29.86 in6.2 miSouth (190°)11.5 mphPartly Cloudy
9:00 AM50.0 °F37.4 °F62 %29.86 in6.2 miSouth (190°)11.5 mphPartly Cloudy
9:30 AM51.8 °F37.4 °F58 %29.86 in6.2 miSSW (200°)13.8 mphPartly Cloudy
10:00 AM55.4 °F37.4 °F51 %29.86 in6.2 miSSW (200°)12.7 mphPartly Cloudy
11:30 AM60.8 °F37.4 °F42 %29.83 in6.2 miSouth (190°)16.1 mphPartly Cloudy
12:00 PM62.6 °F35.6 °F37 %29.83 in6.2 miSSW (210°)16.1 mphPartly Cloudy
12:30 PM64.4 °F37.4 °F37 %29.80 in6.2 miSSW (210°)21.9 mph35.7 mphPartly Cloudy
1:00 PM64.4 °F35.6 °F34 %29.77 in6.2 miSSW (210°)25.3 mphPartly Cloudy
1:30 PM66.2 °F35.6 °F32 %29.77 in6.2 miSSW (210°)21.9 mphPartly Cloudy
2:00 PM66.2 °F35.6 °F32 %29.74 in6.2 miSSW (210°)24.2 mphPartly Cloudy
3:00 PM66.2 °F35.6 °F32 %29.71 in6.2 miSSW (200°)19.6 mphPartly Cloudy
3:30 PM66.2 °F37.4 °F35 %29.71 in6.2 miSSW (200°)23.0 mphPartly Cloudy
4:00 PM66.2 °F33.8 °F30 %29.68 in6.2 miSSW (210°)23.0 mphPartly Cloudy
4:30 PM66.2 °F35.6 °F32 %29.68 in6.2 miSSW (200°)25.3 mphPartly Cloudy
5:00 PM64.4 °F37.4 °F37 %29.68 in6.2 miSouth (190°)21.9 mphPartly Cloudy
5:30 PM64.4 °F33.8 °F32 %29.68 in6.2 miSSW (210°)23.0 mphPartly Cloudy
6:00 PM62.6 °F32.0 °F32 %29.68 in6.2 miSW (220°)24.2 mphPartly Cloudy
6:30 PM60.8 °F35.6 °F39 %29.74 in6.2 miWSW (250°)29.9 mph43.7 mphScattered Clouds
7:00 PM55.4 °F42.8 °F63 %29.77 in5.0 miWest (280°)26.5 mphRainLight Rain Showers
8:00 PM51.8 °F39.2 °F62 %29.77 in5.0 miWest (280°)19.6 mphScattered Clouds
8:30 PM51.8 °F37.4 °F58 %29.80 in5.0 miWest (270°)17.3 mphScattered Clouds
9:00 PM51.8 °F37.4 °F58 %29.80 in5.0 miWest (280°)15.0 mphScattered Clouds
9:30 PM50.0 °F37.4 °F62 %29.80 in5.0 miWest (260°)12.7 mphScattered Clouds
10:00 PM50.0 °F35.6 °F58 %29.83 in5.0 miWSW (250°)16.1 mphPartly Cloudy
10:30 PM50.0 °F35.6 °F58 %29.83 in5.0 miWSW (240°)13.8 mphPartly Cloudy
11:00 PM48.2 °F33.8 °F58 %5.0 miWSW (240°)10.4 mphPartly Cloudy
11:30 PM48.2 °F33.8 °F58 %29.83 in5.0 miWSW (240°)9.2 mphPartly Cloudy
Hourly data recorded from DTMB, located miles away from Sousse, Tunisia







STORIES FROM OUR PARTNERS